HULIANWANG DIGUI-117

Last updated on Sat Dec 13 2025 00:02:09 GMT+0000 (Coordinated Universal Time)

1 66956U 25287D 25345.82292378 .00000033 00000+0 18811-4 0 9994 2 66956 86.4968 346.4938 0007284 195.1574 164.9368 13.69017640 403
UTC large
Height (km)
Speed (km/s)
/
Latitude / Longitude
Inclination (degrees)
Orbital Period (minutes)
Azimuth
Elevation
Range (km)
Doppler Factor

Next 0 passes for location: London (51.5072 / 0.1276)

Sorry there are no passes over London.